This demonstration page uses our WeatherBlox Daily Observations layout. Learn more.

Left ArrowRight Arrow

Hourly Observations for December 5, 2021

Temp ( °F °C ) Dew Point ( °F °C ) Humidity (%) Winds ( mph kmh ) Pressure ( in mb ) Visibility ( mi km ) Precip ( " mm )
12:53 am 00:53 Clear 27 -2.8 22 -5.6 81 81 N N/A 30.28 1026 10 16 N/A
1:53 am 01:53 Clear 27 -2.8 22 -5.6 81 81 N N/A 30.27 1025 10 16 N/A
2:53 am 02:53 Clear 26 -3.3 22 -5.6 84 84 N N/A 30.26 1025 10 16 N/A
3:53 am 03:53 Clear 25 -3.9 20 -6.7 81 81 N N/A 30.25 1025 10 16 N/A
4:53 am 04:53 Clear 28 -2.2 22 -5.6 78 78 E 5 7 30.24 1024 10 16 N/A
5:53 am 05:53 Clear 27 -2.8 22 -5.6 81 81 ENE 3 6 30.23 1024 10 16 N/A
6:53 am 06:53 Clear 26 -3.3 21 -6.1 81 81 N N/A 30.24 1024 10 16 N/A
7:53 am 07:53 Cloudy 31 -0.6 25 -3.9 79 79 ENE 6 9 30.21 1023 10 16 N/A
8:53 am 08:53 Cloudy 36 2.2 27 -2.8 70 70 E 8 13 30.19 1022 10 16 N/A
9:53 am 09:53 Cloudy 39 3.9 28 -2.2 65 65 ESE 7 11 30.15 1021 10 16 N/A
10:53 am 10:53 Partly Cloudy 44 6.7 26 -3.3 49 49 VRB 5 7 30.12 1020 10 16 N/A
11:13 am 11:13 Cloudy 45 7.2 26 -3.3 48 48 ESE 9 15 30.10 1019 10 16 N/A
11:53 am 11:53 Cloudy 47 8.3 27 -2.8 46 46 VRB 7 11 30.06 1018 10 16 N/A
12:53 pm 12:53 Cloudy 49 9.4 29 -1.7 46 46 VRB 6 9 29.98 1015 10 16 N/A
1:53 pm 13:53 Mostly Sunny 53 11.7 34 1.1 48 48 VRB 5 7 29.94 1014 10 16 N/A
2:53 pm 14:53 Mostly Sunny 55 12.8 36 2.2 49 49 VRB 7 11 29.89 1012 10 16 N/A
3:53 pm 15:53 Mostly Cloudy 57 13.9 39 3.9 51 51 VRB 3 6 29.85 1011 10 16 N/A
4:53 pm 16:53 Cloudy 57 13.9 42 5.6 58 58 SE 5 7 29.83 1010 10 16 0.00 0.00
5:53 pm 17:53 Mostly Cloudy 54 12.2 48 8.9 80 80 N N/A 29.82 1010 10 16 0.03 0.76
6:53 pm 18:53 Cloudy 56 13.3 52 11.1 87 87 VRB 5 7 29.79 1009 10 16 0.03 0.76
7:53 pm 19:53 Cloudy with Light Rain 58 14.4 53 11.7 84 84 S 9 15 29.78 1008 9 14 0.01 0.25
8:53 pm 20:53 Cloudy 59 15 55 12.8 87 87 VRB 7 11 29.77 1008 10 16 0.01 0.25
9:53 pm 21:53 Cloudy 61 16.1 56 13.3 84 84 S 8 13 29.78 1009 10 16 0.00 0.00
10:53 pm 22:53 Cloudy 61 16.1 56 13.3 84 84 VRB 7 11 29.77 1008 10 16 0.00 0.00
11:53 pm 23:53 Mostly Cloudy with Light Rain 60 15.6 57 13.9 90 90 SSE 6 9 29.72 1006 10 16 0.01 0.25

Powered by AerisWeather